Macon, GA

9:17 AM EST on December 08, 2019 (GMT -0500)
Middle Georgia Regional

Weather History for KMCN - November, 2019

Change the Weather History Date:

Saturday, November 16, 2019

  Actual Average Record
Temperature  
Mean Temperature 54 °F 56 °F  
Max Temperature 64 °F 69 °F 84 °F (1958)
Min Temperature 44 °F 43 °F 22 °F (1940)
Degree Days  
Heating Degree Days 11 10  
Month to date heating degree days 214 126  
Since 1 July heating degree days 243 229  
Cooling Degree Days 0 1  
Month to date cooling degree days 0 16  
Year to date cooling degree days 2779 2160  
Growing Degree Days 4 (Base 50)    
Moisture  
Dew Point 42 °F    
Average Humidity 69    
Maximum Humidity 89    
Minimum Humidity 48    
Precipitation  
Precipitation 0.39 in 0.11 in 2.10 in (1920)
Month to date precipitation 2.35 1.61  
Year to date precipitation 35.26 39.93  
Snow  
Snow 0.00 in 0.00 in 0.00 in (2002)
Month to date snowfall 0.0 0.0  
Since 1 July snowfall 0.0 0.0  
Since 1 September snowfall 0.0 0.0  
Snow Depth 0.00 in    
Sea Level Pressure  
Sea Level Pressure 30.02 in    
Wind  
Wind Speed 9 mph (NNE)    
Max Wind Speed 18 mph    
Max Gust Speed 27 mph    
Visibility 9 miles    
Events Rain    
T = Trace of Precipitation, MM = Missing Value Source: NWS Daily Summary

Daily Weather History Graph

Daily Weather History Graph

Search for Another Location

Airport or City:

Astronomy

Nov. 16, 2019 Rise Set
Actual Time 7:05 AM EST 5:33 PM EST
Civil Twilight 6:39 AM EST 5:59 PM EST
Nautical Twilight 6:09 AM EST 6:29 PM EST
Astronomical Twilight 5:40 AM EST 6:58 PM EST
Moon 9:10 PM EST (11/16) 10:52 AM EST (11/16)
Length of Visible Light 11h 20m
Length of Day
10h 27m
Waning Gibbous, 82% of the Moon is Illuminated
Nov 16
Waning Gibbous
Nov 19
Last Quarter
Nov 26
New
Dec 4
First Quarter
Dec 12
Full

Hourly Weather History & Observations

Time (EST) Temp. Windchill Dew Point Humidity Pressure Visibility Wind Dir Wind Speed Gust Speed Precip Events Conditions
12:09 AM 44.1 °F 36.8 °F 41.0 °F 89% 30.02 in 6.0 mi NNE 16.1 mph - 0.01 in Rain Light Rain
12:17 AM 44.1 °F 37.4 °F 41.0 °F 89% 30.02 in 8.0 mi North 13.8 mph 23.0 mph 0.01 in   Overcast
12:53 AM 44.1 °F 37.7 °F 41.0 °F 89% 30.01 in 10.0 mi NNE 12.7 mph - 0.01 in   Overcast
1:53 AM 44.1 °F 38.6 °F 41.0 °F 89% 30.01 in 10.0 mi North 10.4 mph 20.7 mph N/A   Overcast
2:24 AM 44.1 °F 38.6 °F 41.0 °F 89% 30.00 in 2.5 mi NNE 10.4 mph 17.3 mph 0.02 in Rain Rain
2:31 AM 44.1 °F 38.6 °F 41.0 °F 89% 30.00 in 1.8 mi NNE 10.4 mph - 0.08 in Rain Heavy Rain
2:50 AM 44.6 °F 39.2 °F 41.0 °F 87% 29.99 in 2.5 mi North 10.4 mph - 0.23 in Rain Rain
2:53 AM 44.1 °F 40.1 °F 41.0 °F 89% 30.00 in 3.0 mi North 6.9 mph - 0.24 in Rain Rain
3:53 AM 45.0 °F 39.7 °F 41.0 °F 86% 29.99 in 10.0 mi North 10.4 mph - 0.07 in Rain Light Rain
4:53 AM 45.0 °F 39.3 °F 41.0 °F 86% 30.01 in 8.0 mi North 11.5 mph - 0.01 in Rain Light Rain
5:53 AM 45.0 °F 39.3 °F 41.0 °F 86% 30.01 in 10.0 mi North 11.5 mph - 0.05 in Rain Light Rain
6:14 AM 45.0 °F 40.1 °F 41.0 °F 86% 30.01 in 10.0 mi NNE 9.2 mph - 0.00 in Rain Light Rain
6:53 AM 45.0 °F 39.7 °F 41.0 °F 86% 30.02 in 10.0 mi North 10.4 mph - 0.01 in Rain Light Rain
7:53 AM 45.0 °F 40.1 °F 41.0 °F 86% 30.04 in 10.0 mi North 9.2 mph - 0.00 in   Overcast
8:53 AM 48.9 °F - 39.9 °F 71% 30.04 in 10.0 mi North 10.4 mph - N/A   Overcast
9:53 AM 51.1 °F - 39.0 °F 63% 30.05 in 10.0 mi North 11.5 mph - N/A   Overcast
10:53 AM 55.9 °F - 39.9 °F 55% 30.05 in 10.0 mi NNE 11.5 mph - N/A   Overcast
12:13 PM 57.9 °F - 39.9 °F 51% 30.03 in 10.0 mi North 13.8 mph - N/A   Overcast
12:53 PM 60.1 °F - 42.1 °F 51% 30.01 in 10.0 mi North 12.7 mph - N/A   Overcast
1:24 PM 61.0 °F - 42.1 °F 50% 30.00 in 10.0 mi North 12.7 mph - N/A   Mostly Cloudy
1:34 PM 62.1 °F - 42.1 °F 48% 30.00 in 10.0 mi North 12.7 mph - N/A   Mostly Cloudy
1:53 PM 62.1 °F - 43.0 °F 50% 29.99 in 10.0 mi North 11.5 mph - N/A   Partly Cloudy
2:53 PM 63.0 °F - 44.1 °F 50% 29.99 in 10.0 mi NNE 12.7 mph - N/A   Clear
3:53 PM 63.0 °F - 44.1 °F 50% 29.99 in 10.0 mi North 13.8 mph - N/A   Overcast
4:53 PM 61.0 °F - 44.1 °F 54% 30.00 in 10.0 mi NNE 8.1 mph - N/A   Overcast
5:53 PM 59.0 °F - 44.1 °F 58% 30.01 in 10.0 mi North 5.8 mph - N/A   Overcast
6:53 PM 57.0 °F - 45.0 °F 64% 30.03 in 10.0 mi ENE 8.1 mph - N/A   Overcast
7:53 PM 55.9 °F - 46.0 °F 69% 30.04 in 10.0 mi East 6.9 mph - N/A   Overcast
8:53 PM 54.0 °F - 46.9 °F 77% 30.06 in 10.0 mi ESE 3.5 mph - N/A   Overcast
9:53 PM 54.0 °F - 48.0 °F 80% 30.06 in 10.0 mi Calm Calm - N/A   Overcast
10:53 PM 54.0 °F - 46.9 °F 77% 30.05 in 10.0 mi North 4.6 mph - N/A   Overcast
11:53 PM 54.0 °F - 42.1 °F 64% 30.04 in 10.0 mi NE 8.1 mph - N/A   Overcast